KLM4YM LFLB-LSZH

Flight info

Callsign KLM4YM
Flight time 0h 34m
Altitude 24000
Route VENAT T45 SOSAL N871 BERSU
Aircraft C750/M-SBDE3FGHRWXY/S

Departure

Time 2026-05-08 16:04
Airport Chambéry Aix les Bains airport (LFLB)

Arrival

Time 2026-05-08 16:39
Airport Zürich Airport (LSZH)
Time Latitude Longitude Altitude Speed Heading
2026-05-08 15:30 45.63781 5.88302 780 ft 0 kts 86°
2026-05-08 15:46 45.63780 5.88277 780 ft 4 kts 94°
2026-05-08 15:46 45.63785 5.88244 780 ft 4 kts 124°
2026-05-08 15:46 45.63800 5.88226 780 ft 2 kts 175°
2026-05-08 15:46 45.63806 5.88226 780 ft 0 kts 175°
2026-05-08 15:50 45.63793 5.88228 780 ft 2 kts 180°
2026-05-08 15:51 45.63791 5.88228 780 ft 0 kts 177°
2026-05-08 15:51 45.63790 5.88229 780 ft 2 kts 174°
2026-05-08 15:51 45.63711 5.88239 780 ft 23 kts 176°
2026-05-08 15:51 45.63484 5.88253 780 ft 40 kts 175°
2026-05-08 15:52 45.63223 5.88277 780 ft 21 kts 179°
2026-05-08 15:52 45.63168 5.88242 780 ft 0 kts 236°
2026-05-08 15:58 45.63167 5.88239 780 ft 3 kts 236°
2026-05-08 15:58 45.63141 5.88183 780 ft 0 kts 236°
2026-05-08 15:58 45.63140 5.88182 780 ft 0 kts 236°
2026-05-08 16:00 45.63141 5.88181 780 ft 0 kts 251°
2026-05-08 16:00 45.63138 5.88146 781 ft 11 kts 265°
2026-05-08 16:00 45.63076 5.88097 781 ft 14 kts 179°
2026-05-08 16:01 45.62971 5.88133 781 ft 15 kts 155°
2026-05-08 16:01 45.62924 5.88097 781 ft 3 kts 330°
2026-05-08 16:01 45.62925 5.88097 781 ft 0 kts 344°
2026-05-08 16:03 45.63019 5.88084 780 ft 46 kts 356°
2026-05-08 16:04 45.63690 5.88033 779 ft 138 kts 357°
2026-05-08 16:04 45.64684 5.87991 1402 ft 142 kts 359°
2026-05-08 16:04 45.65699 5.88032 2147 ft 148 kts
2026-05-08 16:04 45.66754 5.88060 2848 ft 159 kts 353°
2026-05-08 16:05 45.67879 5.87816 3573 ft 168 kts 350°
2026-05-08 16:05 45.69061 5.87615 4348 ft 175 kts 355°
2026-05-08 16:05 45.70302 5.87506 5167 ft 180 kts 357°
2026-05-08 16:05 45.71543 5.87419 5997 ft 182 kts 356°
2026-05-08 16:06 45.72807 5.87324 6832 ft 181 kts 356°
2026-05-08 16:06 45.74065 5.87228 7661 ft 182 kts 356°
2026-05-08 16:06 45.75338 5.87128 8501 ft 185 kts 356°
2026-05-08 16:06 45.76629 5.87034 9341 ft 187 kts 357°
2026-05-08 16:07 45.77888 5.87480 10085 ft 191 kts 29°
2026-05-08 16:07 45.78862 5.88732 10881 ft 186 kts 47°
2026-05-08 16:07 45.79728 5.90081 11695 ft 182 kts 47°
2026-05-08 16:07 45.80582 5.91382 12436 ft 179 kts 47°
2026-05-08 16:08 45.81469 5.92745 12725 ft 202 kts 47°
2026-05-08 16:08 45.82449 5.94255 13060 ft 209 kts 47°
2026-05-08 16:08 45.83448 5.95794 13596 ft 211 kts 47°
2026-05-08 16:08 45.84451 5.97338 14202 ft 213 kts 47°
2026-05-08 16:09 45.85467 5.98906 14744 ft 216 kts 47°
2026-05-08 16:09 45.86148 5.99958 15098 ft 218 kts 47°
2026-05-08 16:09 45.87605 6.02204 15317 ft 247 kts 47°
2026-05-08 16:09 45.88834 6.04101 15336 ft 273 kts 47°
2026-05-08 16:10 45.90196 6.06211 15500 ft 302 kts 47°
2026-05-08 16:10 45.91681 6.08511 15749 ft 326 kts 47°
2026-05-08 16:10 45.93262 6.10960 16016 ft 347 kts 47°
2026-05-08 16:10 45.94909 6.13511 16817 ft 350 kts 47°
2026-05-08 16:11 45.96576 6.16097 17547 ft 356 kts 47°
2026-05-08 16:11 45.98267 6.18724 18308 ft 360 kts 47°
2026-05-08 16:11 45.99981 6.21389 19056 ft 366 kts 47°
2026-05-08 16:11 46.01722 6.24097 19813 ft 371 kts 47°
2026-05-08 16:12 46.03486 6.26844 20543 ft 376 kts 46°
2026-05-08 16:12 46.05274 6.29633 21265 ft 382 kts 46°
2026-05-08 16:12 46.07082 6.32455 21990 ft 386 kts 46°
2026-05-08 16:12 46.08914 6.35318 22661 ft 391 kts 46°
2026-05-08 16:13 46.10744 6.38180 23318 ft 396 kts 46°
2026-05-08 16:13 46.12596 6.41083 23926 ft 395 kts 46°
2026-05-08 16:13 46.14489 6.44048 23983 ft 404 kts 46°
2026-05-08 16:13 46.16384 6.47019 23981 ft 403 kts 46°
2026-05-08 16:14 46.18285 6.50007 23981 ft 404 kts 46°
2026-05-08 16:14 46.20225 6.53058 23989 ft 424 kts 46°
2026-05-08 16:14 46.22272 6.56278 24002 ft 444 kts 46°
2026-05-08 16:14 46.24503 6.59485 23972 ft 461 kts 39°
2026-05-08 16:15 46.27163 6.62183 23983 ft 474 kts 31°
2026-05-08 16:15 46.30006 6.64743 23990 ft 489 kts 30°
2026-05-08 16:15 46.32885 6.67370 23993 ft 502 kts 31°
2026-05-08 16:15 46.35851 6.70107 23992 ft 508 kts 31°
2026-05-08 16:16 46.38844 6.72858 23988 ft 511 kts 31°
2026-05-08 16:16 46.41854 6.75602 23978 ft 511 kts 31°
2026-05-08 16:16 46.44809 6.78307 23973 ft 492 kts 31°
2026-05-08 16:16 46.47707 6.80980 23970 ft 495 kts 31°
2026-05-08 16:17 46.50613 6.83655 23973 ft 495 kts 31°
2026-05-08 16:17 46.52542 6.85416 23973 ft 495 kts 31°
2026-05-08 16:17 46.56190 6.89519 23975 ft 497 kts 42°
2026-05-08 16:17 46.58474 6.93199 23982 ft 498 kts 50°
2026-05-08 16:18 46.60634 6.97133 23993 ft 498 kts 51°
2026-05-08 16:18 46.62814 7.01061 23990 ft 498 kts 50°
2026-05-08 16:18 46.65001 7.04971 23985 ft 498 kts 50°
2026-05-08 16:18 46.67177 7.08891 23987 ft 498 kts 50°
2026-05-08 16:19 46.69347 7.12833 23988 ft 498 kts 50°
2026-05-08 16:19 46.71515 7.16774 23988 ft 498 kts 50°
2026-05-08 16:19 46.73689 7.20707 23987 ft 498 kts 50°
2026-05-08 16:19 46.75862 7.24638 23987 ft 498 kts 50°
2026-05-08 16:20 46.78029 7.28582 23988 ft 498 kts 50°
2026-05-08 16:20 46.80163 7.32484 23975 ft 499 kts 51°
2026-05-08 16:20 46.82324 7.36431 23976 ft 498 kts 50°
2026-05-08 16:20 46.84493 7.40384 23975 ft 498 kts 50°
2026-05-08 16:21 46.86656 7.44335 23927 ft 499 kts 51°
2026-05-08 16:21 46.88776 7.48237 23315 ft 474 kts 51°
2026-05-08 16:21 46.90756 7.51897 22699 ft 445 kts 51°
2026-05-08 16:21 46.92636 7.55357 22149 ft 427 kts 51°
2026-05-08 16:22 46.94470 7.58727 21661 ft 423 kts 51°
2026-05-08 16:22 46.96297 7.62097 21099 ft 422 kts 51°
2026-05-08 16:22 46.98114 7.65462 20551 ft 418 kts 51°
2026-05-08 16:22 46.99882 7.68739 20031 ft 414 kts 51°
2026-05-08 16:23 47.01666 7.72039 19500 ft 411 kts 51°
2026-05-08 16:23 47.03430 7.75300 19001 ft 407 kts 51°
2026-05-08 16:23 47.05184 7.78549 18507 ft 404 kts 51°
2026-05-08 16:23 47.06915 7.81768 18013 ft 401 kts 51°
2026-05-08 16:24 47.08631 7.84961 17542 ft 397 kts 51°
2026-05-08 16:24 47.10336 7.88132 17062 ft 395 kts 51°
2026-05-08 16:24 47.12032 7.91289 16573 ft 392 kts 51°
2026-05-08 16:24 47.13649 7.94491 16060 ft 390 kts 58°
2026-05-08 16:25 47.14820 7.98003 15615 ft 387 kts 65°
2026-05-08 16:25 47.15948 8.01638 15110 ft 384 kts 65°
2026-05-08 16:25 47.17063 8.05125 14655 ft 381 kts 65°
2026-05-08 16:25 47.18204 8.08631 14172 ft 379 kts 65°
2026-05-08 16:26 47.19319 8.12122 13703 ft 376 kts 65°
2026-05-08 16:26 47.20473 8.15558 13199 ft 373 kts 60°
2026-05-08 16:26 47.22211 8.18348 12691 ft 370 kts 37°
2026-05-08 16:26 47.24473 8.20083 12213 ft 367 kts 17°
2026-05-08 16:27 47.26968 8.20580 11739 ft 361 kts 357°
2026-05-08 16:27 47.29396 8.19833 11265 ft 353 kts 338°
2026-05-08 16:27 47.31514 8.18333 10864 ft 325 kts 331°
2026-05-08 16:27 47.33439 8.16880 10470 ft 306 kts 332°
2026-05-08 16:28 47.35291 8.15494 10096 ft 294 kts 332°
2026-05-08 16:28 47.37105 8.14141 9706 ft 291 kts 332°
2026-05-08 16:28 47.38895 8.12799 9326 ft 290 kts 333°
2026-05-08 16:28 47.40703 8.11447 8939 ft 289 kts 333°
2026-05-08 16:29 47.42496 8.10107 8565 ft 288 kts 333°
2026-05-08 16:29 47.44278 8.08773 8186 ft 287 kts 333°
2026-05-08 16:29 47.46050 8.07444 7808 ft 285 kts 333°
2026-05-08 16:29 47.47827 8.06190 7416 ft 281 kts 339°
2026-05-08 16:30 47.49730 8.05919 6989 ft 272 kts
2026-05-08 16:30 47.51405 8.06841 6975 ft 246 kts 32°
2026-05-08 16:30 47.52575 8.08485 6984 ft 230 kts 53°
2026-05-08 16:30 47.53480 8.10415 7013 ft 229 kts 55°
2026-05-08 16:31 47.54401 8.12366 6904 ft 236 kts 55°
2026-05-08 16:31 47.55342 8.14373 6763 ft 234 kts 56°
2026-05-08 16:31 47.56257 8.16335 6728 ft 231 kts 56°
2026-05-08 16:31 47.57171 8.18298 6568 ft 230 kts 56°
2026-05-08 16:32 47.58073 8.20232 6346 ft 228 kts 56°
2026-05-08 16:32 47.58969 8.22159 6119 ft 227 kts 56°
2026-05-08 16:32 47.59783 8.24151 5876 ft 225 kts 65°
2026-05-08 16:32 47.60418 8.26276 5644 ft 226 kts 66°
2026-05-08 16:33 47.61054 8.28357 5425 ft 224 kts 65°
2026-05-08 16:33 47.61704 8.30462 5210 ft 225 kts 65°
2026-05-08 16:33 47.62137 8.32669 4914 ft 226 kts 88°
2026-05-08 16:33 47.61724 8.34882 4677 ft 222 kts 118°
2026-05-08 16:34 47.60735 8.36476 4490 ft 199 kts 136°
2026-05-08 16:34 47.59753 8.37788 4337 ft 184 kts 136°
2026-05-08 16:34 47.58868 8.38997 4140 ft 158 kts 136°
2026-05-08 16:34 47.58123 8.40021 4005 ft 140 kts 135°
2026-05-08 16:35 47.57415 8.40991 3832 ft 141 kts 135°
2026-05-08 16:35 47.56695 8.41984 3660 ft 142 kts 135°
2026-05-08 16:35 47.55970 8.42980 3473 ft 144 kts 135°
2026-05-08 16:35 47.55236 8.43988 3295 ft 143 kts 135°
2026-05-08 16:36 47.54514 8.44977 3099 ft 143 kts 135°
2026-05-08 16:36 47.53775 8.45992 2910 ft 144 kts 135°
2026-05-08 16:36 47.53042 8.46995 2715 ft 141 kts 135°
2026-05-08 16:36 47.52324 8.47977 2523 ft 140 kts 135°
2026-05-08 16:37 47.51612 8.48948 2332 ft 139 kts 134°
2026-05-08 16:37 47.50913 8.49912 2160 ft 140 kts 135°
2026-05-08 16:37 47.50194 8.50896 1973 ft 140 kts 135°
2026-05-08 16:37 47.49476 8.51871 1786 ft 140 kts 135°
2026-05-08 16:38 47.48761 8.52845 1588 ft 138 kts 136°
2026-05-08 16:38 47.48059 8.53807 1430 ft 137 kts 134°
2026-05-08 16:38 47.47438 8.54676 1389 ft 98 kts 130°
2026-05-08 16:38 47.47088 8.55142 1384 ft 55 kts 138°
2026-05-08 16:39 47.46823 8.55502 1389 ft 42 kts 139°
2026-05-08 16:39 47.46615 8.55672 1390 ft 29 kts 165°
2026-05-08 16:39 47.46467 8.55722 1392 ft 14 kts 166°
2026-05-08 16:39 47.46448 8.55729 1393 ft 0 kts 167°
2026-05-08 16:41 47.46435 8.55733 1400 ft 7 kts 167°
2026-05-08 16:42 47.46300 8.55870 1405 ft 11 kts 136°
2026-05-08 16:42 47.46235 8.55960 1407 ft 15 kts 137°
2026-05-08 16:42 47.46133 8.55996 1407 ft 18 kts 188°
2026-05-08 16:42 47.45994 8.55975 1405 ft 23 kts 186°
2026-05-08 16:43 47.45873 8.55921 1408 ft 8 kts 201°
2026-05-08 16:43 47.45860 8.55914 1406 ft 0 kts 197°
2026-05-08 16:50 47.45847 8.55908 1412 ft 10 kts 198°
2026-05-08 16:50 47.45832 8.55901 1410 ft 0 kts 196°
2026-05-08 16:51 47.45786 8.55886 1410 ft 14 kts 187°
2026-05-08 16:51 47.45657 8.55860 1407 ft 17 kts 192°
2026-05-08 16:51 47.45639 8.55856 1405 ft 0 kts 188°
2026-05-08 16:52 47.45637 8.55856 1405 ft 1 kts 183°
2026-05-08 16:52 47.45615 8.55852 1411 ft 9 kts 188°
2026-05-08 16:52 47.45513 8.55799 1410 ft 22 kts 243°
2026-05-08 16:53 47.45470 8.55445 1403 ft 11 kts 158°
2026-05-08 16:53 47.45369 8.55515 1405 ft 22 kts 153°
2026-05-08 16:53 47.45200 8.55604 1407 ft 27 kts 151°
2026-05-08 16:54 47.45032 8.55716 1403 ft 26 kts 152°
2026-05-08 16:54 47.44943 8.55907 1404 ft 20 kts 118°
2026-05-08 16:54 47.44839 8.56006 1403 ft 16 kts 155°
2026-05-08 16:54 47.44744 8.56074 1395 ft 16 kts 150°
2026-05-08 16:55 47.44629 8.56152 1392 ft 21 kts 155°
2026-05-08 16:55 47.44518 8.56217 1394 ft 10 kts 185°
2026-05-08 16:55 47.44465 8.56236 1403 ft 10 kts 158°
2026-05-08 16:55 47.44386 8.56287 1399 ft 17 kts 160°
2026-05-08 16:56 47.44295 8.56207 1398 ft 14 kts 224°
2026-05-08 16:56 47.44231 8.56195 1400 ft 10 kts 154°
2026-05-08 16:56 47.44162 8.56243 1403 ft 12 kts 154°
2026-05-08 16:56 47.44098 8.56235 1398 ft 8 kts 233°
2026-05-08 16:57 47.44090 8.56217 1398 ft 0 kts 228°
2026-05-08 16:57 47.44087 8.56200 1400 ft 4 kts 251°
2026-05-08 16:57 47.44085 8.56195 1397 ft 0 kts 245°